Flag for Denmark Weather past 2 weeks in Aarhus, Denmark

Now
52 °F

Partly sunny.


Feels Like: 49 °F
Forecast: 50 / 58 °F
Wind: 8 mph from Southwest

Location: Tirstrup

Current Time: Oct 25, 2014 at 9:53:58 AM

Latest Report: Oct 25, 2014 at 9:20 AM


Visibility: 5 mi

Pressure: 29.92 "Hg

Humidity: 88%

Dew point: 48 °F

Location of AarhusLocation

Historic Weather in Aarhus — Graph

°F

Aarhus temperature yesterday

Maximum temperature yesterday: 55 °F (at 5:50 PM)
Minimum temperature yesterday: 54 °F (at 12:20 AM)
Average temperature yesterday: 54 °F

Past Weeks' High & Low Weather Summary

 TemperatureHumidityPressure
High63 °F (Oct 11, 4:20 PM)94% (Oct 11, 6:50 AM)30.12 "Hg (Oct 11, 6:50 AM)
Low43 °F (Oct 12, 10:50 PM)55% (Oct 12, 3:20 PM)29.33 "Hg (Oct 21, 7:20 PM)
Average54 °F84%29.82 "Hg
* Reported Oct 10 8:20 AM — Oct 25 8:50 AM, Aarhus, Weather by CustomWeather, © 2014

Note: Actual official high and low records may vary slightly from our data, if they occured in-between our weather recording intervals... More about our weather records

Advertising

Aarhus weather history for previous 24 hours

 ConditionsComfort  
Time TempWeatherWind HumidityBarometerVisibility
8:50 AM
Oct 25
52 °FLow clouds.8 mph94%29.92 "Hg5 mi
8:20 AM52 °FLow clouds.8 mph94%29.92 "Hg5 mi
7:50 AM52 °FLight rain. Low clouds.8 mph94%29.92 "Hg5 mi
7:20 AM52 °FLight rain. Low clouds.7 mph88%29.92 "Hg5 mi
6:50 AM52 °FRain. Passing clouds.8 mph88%29.92 "Hg4 mi
6:20 AM52 °FRain showers. Passing clouds.8 mph88%29.92 "Hg2 mi
5:50 AM52 °FSprinkles. Passing clouds.9 mph88%29.92 "Hg4 mi
5:20 AM52 °FSprinkles. Low clouds.9 mph88%29.92 "Hg4 mi
4:50 AM52 °FSprinkles. Passing clouds.9 mph88%29.92 "Hg4 mi
4:20 AM52 °FLow clouds.9 mph88%29.92 "Hg4 mi
3:50 AM52 °FLight rain. Fog.10 mph88%29.92 "Hg2 mi
3:20 AM52 °FPassing clouds.8 mph88%29.92 "Hg1 mi
2:50 AM54 °FPassing clouds.10 mph82%29.92 "Hg6 mi
2:20 AM54 °FOvercast.12 mph82%29.92 "Hg6 mi
1:50 AM52 °FLight rain. Overcast.8 mph88%29.95 "Hg6 mi
1:20 AM52 °FPassing clouds.9 mph88%29.95 "Hg5 mi
12:50 AM52 °FPassing clouds.9 mph88%29.98 "Hg4 mi
12:20 AM54 °FLight rain. Passing clouds.8 mph82%29.98 "Hg4 mi
11:50 PM
Oct 24
54 °FLight rain. Passing clouds.9 mph88%29.98 "Hg3 mi
11:20 PM54 °FRain. Passing clouds.9 mph88%29.98 "Hg3 mi
10:50 PM54 °FLight rain. Passing clouds.8 mph88%29.98 "Hg4 mi
10:20 PM54 °FLight rain. Overcast.8 mph88%29.98 "Hg4 mi
9:50 PM54 °FLight rain. Passing clouds.8 mph88%29.98 "Hg5 mi
9:20 PM54 °FLight rain. Overcast.7 mph82%29.98 "Hg6 mi
8:50 PM54 °FLight rain. Passing clouds.9 mph82%30.01 "Hg4 mi
8:20 PM54 °FRain. Overcast.12 mph82%29.98 "HgN/A
7:50 PM55 °FDrizzle. Overcast.13 mph77%29.98 "HgN/A
7:20 PM55 °FOvercast.10 mph77%29.98 "HgN/A
6:50 PM55 °FOvercast.9 mph72%29.98 "HgN/A
6:20 PM55 °FPartly sunny.10 mph72%29.98 "HgN/A
5:50 PM55 °FOvercast.10 mph72%30.01 "HgN/A
5:20 PM54 °FDrizzle. Partly sunny.10 mph82%30.01 "Hg6 mi
4:50 PM54 °FLow clouds.9 mph82%30.01 "HgN/A
4:20 PM54 °FLow clouds.12 mph82%30.01 "HgN/A
3:50 PM54 °FOvercast.10 mph88%30.01 "Hg6 mi
3:20 PM54 °FOvercast.8 mph88%30.01 "Hg5 mi
2:50 PM54 °FOvercast.9 mph82%30.04 "Hg6 mi
2:20 PM54 °FSprinkles. Partly sunny.8 mph88%30.04 "Hg3 mi
1:50 PM54 °FDrizzle. Partly sunny.8 mph88%30.04 "Hg4 mi
1:20 PM54 °FLow clouds.9 mph88%30.04 "Hg4 mi
12:50 PM54 °FLow clouds.9 mph88%30.04 "Hg4 mi
12:20 PM54 °FLow clouds.10 mph88%30.04 "Hg4 mi
11:50 AM54 °FLow clouds.8 mph88%30.04 "Hg3 mi
11:20 AM54 °FSprinkles. Fog.9 mph88%30.04 "Hg3 mi
10:50 AM54 °FSprinkles. Fog.9 mph88%30.04 "Hg2 mi
10:20 AM54 °FSprinkles. Fog.9 mph88%30.04 "Hg2 mi
9:50 AM54 °FDrizzle. Fog.9 mph88%30.04 "Hg1 mi
9:20 AM54 °FLow clouds.9 mph88%30.04 "Hg3 mi
Weather by CustomWeather, © 2014

See weather overviewHow to use our weather pages